Location: Brede
(50.9167°N, 0.6000°E)
Time: 16:36:13
(UTC+00:00)

SL-16 R/B - Pass Details

Date: 08 August 2020
Orbit: 985 x 1007 km, 99.5° (Epoch: 23 September)

Event Time Altitude Azimuth Distance (km) Brightness Sun altitude
Exits shadow 00:59:59 23° 142° (SE) 2,004 3.8 -21.9°
Maximum altitude 01:04:00 64° 68° (ENE) 1,112 2.9 -21.7°
Drops below altitude 10° 01:10:12 10° 348° (NNW) 2,791 5.7 -21.4°
Sets 01:12:42 0° 346° (NNW) 3,742 6.5 -21.3°
